CAPE
0 0 0 0 0 0 0 0 0 0 0 0 0 0 0 0 0 0 0 0 0 0 0 0 0 0 0 0 0 0 0 0 0 0 0 0 0 0 0 0 0 0 0
0 0 0 0 0 0 0 0 0 0 0 0 0 0 0 0 0 0 0 0 0 0 0 0 0 0 0 0 0 0 0 0 0 0 0 0 0 0 0 0 0 0 0
0 0 0 0 0 0 0 0 0 0 0 0 0 0 0 0 0 0 0 0 0 0 0 0 0 0 0 0 0 0 0 0 0 0 0 0 0 0 0 0 0 0 0
0 0 0 0 0 0 0 0 0 0 0 0 0 0 0 0 0 0 0 0 0 0 0 0 0 0 0 0 0 0 0 0 0 0 0 0 0 0 0 0 0 0 0
0 0 0 0 0 0 0 0 0 0 0 0 0 0 0 0 0 0 0 0 0 0 0 0 0 0 0 0 0 0 0 0 0 0 0 0 0 0 0 0 0 0 0
0 0 0 0 0 0 0 0 0 0 0 0 0 0 0 0 0 0 0 0 0 0 0 0 0 0 0 0 0 0 0 0 0 0 0 0 0 0 0 0 0 0 0
0 0 0 0 0 0 0 0 0 0 0 0 0 0 0 0 0 0 0 0 0 0 0 0 0 0 0 0 0 0 0 0 0 0 0 0 0 0 0 0 0 0 0
0 0 0 0 0 0 0 0 0 0 0 0 0 0 0 0 0 0 0 0 0 0 0 0 0 0 0 0 0 0 0 0 0 0 0 0 0 0 0 0 0 0 0
0 0 0 0 0 0 0 0 0 0 0 0 0 0 0 0 0 0 0 0 0 0 0 0 0 0 0 0 0 0 0 0 0 0 0 0 0 0 0 0 0 0 0
0 0 0 0 0 0 0 0 0 0 0 0 0 0 0 0 0 0 0 0 0 0 0 0 0 0 0 0 0 0 0 0 0 0 0 0 0 0 0 0 0 0 0
0 0 0 0 0 0 0 0 0 0 0 0 0 0 0 0 0 1 0 0 0 0 0 0 0 3 1 0 0 0 0 0 0 0 0 0 0 0 0 0 0 0 0
0 0 0 0 0 0 0 0 0 0 0 0 0 0 0 0 0 3 3 0 0 0 0 0 0 3 1 0 0 0 0 0 0 0 0 0 0 0 0 0 0 0 0
0 0 0 0 0 0 0 0 0 0 0 0 0 0 0 0 0 6 9 3 1 0 0 0 0 1 2 0 0 0 0 0 0 0 0 0 0 0 0 0 0 0 0
0 0 0 0 0 0 0 0 0 0 0 0 0 0 0 0 0 0 0 0 2 0 1 0 0 0 0 0 0 0 0 0 0 0 0 0 0 0 0 0 0 0 0
0 0 0 0 0 0 0 0 0 0 0 0 0 0 0 0 0 0 0 0 0 0 0 0 0 0 0 0 0 0 0 0 0 0 0 0 0 0 0 0 0 0 0
0 0 0 0 0 0 0 0 0 0 0 1 0 0 0 0 2 6 7 3 3 1 0 0 0 0 0 0 0 0 0 0 0 0 0 0 0 0 0 0 0 0 0
0 0 0 0 0 0 0 0 0 0 6 7 4 5 3 0 4 9 8 6 10 4 0 0 0 0 0 0 0 0 0 0 0 0 0 0 0 0 0 0 0 0 0
0 0 0 0 0 0 0 0 0 0 0 0 3 3 11 6 6 9 17 17 0 0 0 0 0 0 0 0 0 0 0 0 0 0 0 0 0 0 0 0 0 0 0
0 0 0 0 0 0 0 0 0 0 0 0 0 6 3 6 8 18 27 0 0 0 0 0 0 0 0 0 0 0 0 0 0 0 0 0 0 0 0 0 0 0 0
0 0 0 0 0 0 0 0 0 0 0 0 0 0 0 0 0 0 1 0 0 0 0 0 0 0 0 0 0 0 0 0 0 0 0 0 0 0 0 0 0 0 0
0 0 0 0 0 0 0 0 0 0 0 0 0 0 0 0 0 0 0 0 0 0 0 0 0 0 0 0 0 0 0 0 0 0 0 0 0 0 0 0 0 0 0
0 0 0 0 0 0 0 0 0 0 0 0 0 0 8 0 0 0 0 0 0 0 0 0 0 0 0 0 0 0 0 0 0 0 0 0 0 0 0 0 0 0 0
0 0 0 0 0 0 0 0 0 0 0 0 0 0 0 0 0 0 0 0 0 0 0 0 0 0 0 0 0 0 0 0 0 0 0 0 0 0 0 0 0 0 0
0 0 0 0 0 0 0 0 0 0 0 0 0 0 0 0 0 0 0 0 0 0 0 0 0 0 0 0 0 0 0 0 0 0 0 0 0 0 0 0 0 0 0
0 0 0 0 0 0 0 0 0 0 0 0 0 0 0 0 0 0 0 0 0 0 0 0 0 0 0 0 0 0 0 0 0 0 0 0 0 0 0 0 0 0 0
0 0 0 0 0 0 0 0 0 0 0 0 0 0 0 0 0 0 0 0 0 0 0 0 0 0 0 0 0 0 0 0 0 0 0 0 0 0 0 0 0 0 0
CIN
-0 -0 -0 -0 -0 -0 -0 -0 -0 -0 -0 -0 -0 -0 -0 -0 -0 -0 -0 -0 -0 -0 -0 -0 -0 -0 -0 -0 -0 -0 -0 -0 -0 -0 -0 -0 -0 -0 -0 -0 -0 -0 -0
-0 -0 -0 -0 -0 -0 -0 -0 -0 -0 -0 -0 -0 -0 -0 -0 -0 -0 -0 -0 -0 -0 -0 -0 -0 -0 -0 -0 -0 -0 -0 -0 -0 -0 -0 -0 -0 -0 -0 -0 -0 -0 -0
-0 -0 -0 -0 -0 -0 -0 -0 -0 -0 -0 -0 -0 -0 -0 -0 -0 -0 -0 -0 -0 -0 -0 -0 -0 -0 -0 -0 -0 -0 -0 -0 -0 -0 -0 -0 -0 -0 -0 -0 -0 -0 -0
-0 -0 -0 -0 -0 -0 -0 -0 -0 -0 -0 -0 -0 -0 -0 -0 -0 -0 -0 -0 -0 -0 -0 -0 -0 -0 -0 -0 -0 -0 -0 -0 -0 -0 -0 -0 -0 -0 -0 -0 -0 -0 -0
-0 -0 -0 -0 -0 -0 -0 -0 -0 -0 -0 -0 -0 -0 -0 -0 -0 -0 -0 -0 -0 -0 -0 -0 -0 -0 -0 -0 -0 -0 -0 -0 -0 -0 -0 -0 -0 -0 -0 -0 -0 -0 -0
-0 -0 -0 -0 -0 -0 -0 -0 -0 -0 -0 -0 -0 -0 -0 -0 -0 -0 -0 -0 -0 -0 -0 -0 -0 -0 -0 -0 -0 -0 -0 -0 -0 -0 -0 -0 -0 -0 -0 -0 -0 -0 -0
-0 -0 -0 -0 -0 -0 -0 -0 -0 -0 -0 -0 -0 -0 -0 -0 -0 -0 -0 -0 -0 -0 -0 -0 -0 -0 -0 -0 -0 -0 -0 -0 -0 -0 -0 -0 -0 -0 -0 -0 -0 -0 -0
-0 -0 -0 -0 -0 -0 -0 -0 -0 -0 -0 -0 -0 -0 -0 -0 -0 -0 -0 -0 -0 -0 -0 -0 -0 -0 -0 -0 -0 -0 -0 -0 -0 -0 -0 -0 -0 -0 -0 -0 -0 -0 -0
-0 -0 -0 -0 -0 -0 -0 -0 -0 -0 -0 -0 -0 -0 -0 -0 -0 -0 -0 -0 -0 -0 -0 -0 -0 -0 -0 -0 -0 -0 -0 -0 -0 -0 -0 -0 -0 -0 -0 -0 -0 -0 -0
-0 -0 -0 -0 -0 -0 -0 -0 -0 -0 -0 -0 -0 -0 -0 -0 -0 -0 -0 -0 -0 -0 -0 -0 -0 -0 -0 -0 -0 -0 -0 -0 -0 -0 -0 -0 -0 -0 -0 -0 -0 -0 -0
-0 -0 -0 -0 -0 -0 -0 -0 -0 -0 -0 -0 -0 -0 -0 -0 -0 -0 -0 -0 -0 -0 -0 -0 -0 -0 -0 -0 -0 -0 -0 -0 -0 -0 -0 -0 -0 -0 -0 -0 -0 -0 -0
-0 -0 -0 -0 -0 -0 -0 -0 -0 -0 -0 -0 -0 -0 -0 -0 -0 -0 -0 -0 -0 -0 -0 -0 -0 -0 -0 -0 -0 -0 -0 -0 -0 -0 -0 -0 -0 -0 -0 -0 -0 -0 -0
-0 -0 -0 -0 -0 -0 -0 -0 -0 -0 -0 -0 -0 -0 -0 -0 -0 -0 -0 -0 -0 -0 -0 -0 -0 -0 -0 -0 -0 -0 -0 -0 -0 -0 -0 -0 -0 -0 -0 -0 -0 -0 -0
-0 -0 -0 -0 -0 -0 -0 -0 -0 -0 -0 -0 -0 -0 -0 -0 -0 -0 -0 -0 -0 -0 -0 -0 -0 -0 -0 -0 -0 -0 -0 -0 -0 -0 -0 -0 -0 -0 -0 -0 -0 -0 -0
-0 -0 -0 -0 -0 -0 -0 -0 -0 -0 -0 -0 -0 -0 -0 -0 -0 -0 -0 -0 -0 -0 -0 -0 -0 -0 -0 -0 -0 -0 -0 -0 -0 -0 -0 -0 -0 -0 -0 -0 -0 -0 -0
-0 -0 -0 -0 -0 -0 -0 -0 -0 -0 -0 -0 -0 -0 -0 -0 -0 -0 -0 -0 -0 -0 -0 -0 -0 -0 -0 -0 -0 -0 -0 -0 -0 -0 -0 -0 -0 -0 -0 -0 -0 -0 -0
-0 -0 -0 -0 -0 -0 -0 -0 -0 -0 -0 -0 -0 -0 -0 -0 -0 -0 -0 -0 -0 -0 -0 -0 -0 -0 -0 -0 -0 -0 -0 -0 -0 -0 -0 -0 -0 -0 -0 -0 -0 -0 -0
-0 -0 -0 -0 -0 -0 -0 -0 -0 -0 -0 -0 -0 -0 -0 -0 -0 -0 -0 -0 -1 -0 -0 -0 -0 -0 -0 -0 -0 -0 -0 -0 -0 -0 -0 -0 -0 -0 -0 -0 -0 -0 -0
-0 -0 -0 -0 -0 -0 -0 -0 -0 -0 -0 -0 -0 -0 -1 -0 -0 -0 -0 -0 -0 -0 -0 -0 -0 -0 -0 -0 -0 -0 -0 -0 -0 -0 -0 -0 -0 -0 -0 -0 -0 -0 -0
-0 -0 -0 -0 -0 -0 -0 -0 -0 -0 -0 -0 -0 -0 -0 -0 -1 -2 -2 -0 -0 -0 -0 -0 -0 -0 -0 -0 -0 -0 -0 -0 -0 -0 -0 -0 -0 -0 -0 -0 -0 -0 -0
-0 -0 -0 -0 -0 -0 -0 -0 -0 -0 -0 -0 -0 -0 -0 -0 -0 -0 -0 -0 -0 -0 -0 -0 -0 -0 -0 -0 -0 -0 -0 -0 -0 -0 -0 -0 -0 -0 -0 -0 -0 -0 -0
-0 -0 -0 -0 -0 -0 -0 -0 -0 -0 -0 -0 -0 -0 -0 -0 -0 -0 -0 -0 -0 -0 -0 -0 -0 -0 -0 -0 -0 -0 -0 -0 -0 -0 -0 -0 -0 -0 -0 -0 -0 -0 -0
-0 -0 -0 -0 -0 -0 -0 -0 -0 -0 -0 -0 -0 -0 -0 -0 -0 -0 -0 -0 -0 -0 -0 -0 -0 -0 -0 -0 -0 -0 -0 -0 -0 -0 -0 -0 -0 -0 -0 -0 -0 -0 -0
-0 -0 -0 -0 -0 -0 -0 -0 -0 -0 -0 -0 -0 -0 -0 -0 -0 -0 -0 -0 -0 -0 -0 -0 -0 -0 -0 -0 -0 -0 -0 -0 -0 -0 -0 -0 -0 -0 -0 -0 -0 -0 -0
-0 -0 -0 -0 -0 -0 -0 -0 -0 -0 -0 -0 -0 -0 -0 -0 -0 -0 -0 -0 -0 -0 -0 -0 -0 -0 -0 -0 -0 -0 -0 -0 -0 -0 -0 -0 -0 -0 -0 -0 -0 -0 -0
-0 -0 -0 -0 -0 -0 -0 -0 -0 -0 -0 -0 -0 -0 -0 -0 -0 -0 -0 -0 -0 -0 -0 -0 -0 -0 -0 -0 -0 -0 -0 -0 -0 -0 -0 -0 -0 -0 -0 -0 -0 -0 -0
Wind_Speed
6 5 6 6 6 6 5 5 5 4 4 5 4 4 4 4 4 5 5 5 5 5 4 5 5 5 4 4 4 4 4 3 3 3 3 3 4 5 5 6 5 4 5
6 6 6 6 6 6 6 6 6 6 5 5 5 5 4 4 4 4 4 4 5 4 4 5 4 3 5 5 4 5 4 5 3 3 2 2 4 4 4 5 6 7 7
7 7 6 6 6 6 6 6 6 5 5 5 5 4 4 4 4 4 5 5 5 4 4 5 4 4 4 3 4 4 3 4 4 3 2 3 2 5 2 4 5 6 6
7 7 7 7 7 6 6 6 6 6 6 4 4 4 4 4 4 5 5 5 5 5 6 6 5 5 4 4 5 5 4 4 4 3 3 2 2 2 2 5 5 5 4
7 7 8 7 6 6 6 6 6 6 5 5 5 4 4 4 3 5 5 5 6 6 5 6 6 7 11 8 3 4 4 3 3 4 2 1 2 3 6 5 4 6 3
9 8 7 7 7 7 7 7 7 6 6 6 5 5 5 2 7 8 6 5 6 7 6 5 5 6 8 12 13 14 9 4 5 1 2 1 4 3 3 4 4 4 5
8 7 8 7 7 8 7 7 7 7 6 6 5 5 5 4 7 8 9 5 6 6 7 6 5 5 5 5 9 11 12 13 12 4 4 3 2 4 3 3 4 3 3
8 8 7 8 7 6 7 7 6 5 6 5 6 6 5 4 9 9 9 5 5 5 5 5 5 5 4 4 5 6 7 7 7 5 5 3 1 2 4 4 5 5 5
10 10 10 10 9 9 9 8 5 6 5 5 5 6 7 5 12 12 9 6 7 6 5 5 6 4 4 4 4 5 4 4 7 7 5 4 5 7 7 2 3 4 3
10 12 9 9 9 9 7 8 4 4 5 6 6 6 7 6 13 13 10 4 6 5 5 7 8 6 6 5 4 4 4 2 2 3 3 3 5 5 8 5 2 1 2
6 6 7 7 8 7 7 4 6 5 6 5 7 5 6 7 8 15 14 5 5 5 4 4 3 9 7 6 5 3 4 4 3 2 1 2 2 3 2 3 3 2 1
7 7 7 7 6 6 7 4 5 7 7 6 6 4 4 5 10 15 16 13 11 6 6 5 4 10 8 7 4 7 6 6 3 3 2 1 1 2 2 2 3 4 4
6 6 6 5 6 7 8 7 5 7 7 7 8 7 6 4 3 15 17 16 14 6 5 9 12 11 11 7 7 6 5 2 3 2 1 1 2 2 3 3 2 3 5
5 5 5 7 6 6 6 7 8 8 8 8 8 8 6 6 6 5 5 8 12 9 10 6 7 8 10 8 4 3 2 2 3 2 2 2 2 2 1 2 2 2 3
5 5 5 5 8 7 8 9 9 9 11 10 9 9 9 8 11 14 11 6 4 8 6 4 3 3 2 2 1 2 2 2 2 2 1 2 2 1 1 1 1 2 1
6 5 5 6 6 6 6 5 15 13 19 19 17 12 8 13 17 22 22 19 18 18 4 3 3 3 5 4 4 3 2 4 3 3 2 2 3 2 1 1 0 0 2
8 6 5 6 6 7 6 7 7 11 18 20 21 20 18 15 19 23 22 20 20 19 3 3 4 5 5 5 5 4 4 4 4 4 3 4 3 2 1 1 1 1 2
6 6 6 6 6 6 7 8 7 8 9 8 19 16 20 18 20 22 22 19 10 12 4 5 5 5 5 5 4 4 3 3 3 3 3 3 3 3 1 2 1 1 2
5 4 5 4 5 6 5 4 7 7 7 7 4 13 15 20 20 22 25 9 10 7 4 4 5 5 5 5 5 4 4 4 4 3 4 4 3 3 3 3 2 3 3
4 6 6 5 3 4 4 6 7 7 7 7 7 9 7 9 9 10 11 7 8 5 6 6 5 5 5 5 5 4 4 3 4 4 4 4 4 4 4 3 3 2 3
4 3 5 4 6 6 7 8 7 7 8 8 8 8 16 11 9 9 9 7 8 7 7 7 6 6 5 5 5 5 5 5 5 5 4 4 4 3 4 3 3 3 3
3 4 5 7 6 6 7 6 7 7 7 7 5 5 23 9 8 8 9 8 8 8 8 8 7 8 8 8 7 6 6 7 5 5 5 5 4 4 3 3 3 2 2
4 4 3 2 3 4 6 6 7 7 7 6 7 7 8 9 8 9 8 6 6 7 6 7 7 6 5 6 7 8 8 8 7 6 6 5 5 4 4 4 3 2 2
4 4 4 4 4 5 6 6 7 7 7 7 7 7 9 8 8 10 6 6 6 6 7 7 7 8 7 7 6 6 6 4 5 6 7 6 5 5 4 3 3 4 3
3 4 5 6 6 6 5 5 5 6 7 7 7 7 7 7 7 7 6 7 7 7 8 7 6 8 10 11 9 9 8 11 7 7 5 6 7 7 4 3 3 3 2
3 4 5 3 4 4 5 6 7 7 8 8 7 7 8 8 7 7 7 8 8 7 7 7 8 10 10 9 10 10 10 11 10 10 6 6 6 4 4 4 4 3 3
Wind_Direction
138 132 129 133 129 120 115 120 123 116 117 105 103 100 97 89 89 89 85 83 81 72 61 67 56 44 31 28 27 24 16 5 92 78 79 74 48 35 25 15 5 8 357
158 151 152 144 133 129 135 146 145 137 133 138 122 111 103 94 93 106 104 110 114 105 86 75 59 67 53 39 30 23 23 14 50 99 99 78 56 11 25 29 3 359 348
167 163 155 156 155 161 164 156 144 133 130 125 124 127 117 109 101 100 107 103 91 81 73 67 42 66 76 96 110 107 84 40 18 47 93 55 67 22 352 358 354 350 349
170 163 169 177 175 172 159 149 144 147 139 135 128 128 125 120 131 125 124 115 98 76 66 59 46 45 35 51 43 17 63 92 82 86 93 103 59 18 350 351 342 344 334
168 175 188 183 174 159 151 154 155 148 145 144 138 138 141 146 156 150 148 132 116 96 80 81 63 59 63 63 64 25 33 55 66 72 49 53 75 37 5 338 311 325 307
184 191 173 172 168 167 166 168 161 154 150 154 161 167 171 179 180 170 150 144 131 122 113 100 86 64 68 71 68 65 63 50 61 68 72 27 56 44 8 331 340 358 341
176 180 183 175 177 182 171 162 168 165 155 169 169 169 173 173 186 179 163 154 147 151 148 152 143 131 113 97 80 68 50 54 65 55 83 27 41 18 354 349 357 328 280
185 187 182 180 181 168 172 174 170 161 167 166 176 177 168 191 185 181 150 130 134 135 147 153 133 131 141 130 111 85 71 62 60 63 72 66 93 56 43 14 329 314 294
197 192 190 182 177 178 183 173 165 155 173 180 179 172 175 186 186 179 151 141 137 131 122 134 129 128 143 136 130 119 94 60 53 59 67 51 36 30 47 39 1 27 323
194 200 182 172 177 186 172 170 154 163 174 176 177 178 177 174 189 187 165 158 148 142 126 132 143 143 148 151 154 153 137 115 77 40 13 31 38 15 28 33 16 99 295
149 147 160 169 173 167 162 161 165 162 156 165 173 176 173 177 193 192 183 175 163 148 160 157 142 153 151 152 134 129 162 139 94 85 38 50 35 23 7 2 4 358 217
151 160 163 162 165 164 163 166 160 157 166 173 162 170 180 181 196 202 202 189 182 165 171 157 162 172 165 137 129 122 127 117 89 72 62 359 333 315 316 321 353 335 304
144 166 167 155 161 160 166 170 158 175 178 179 179 186 187 185 197 211 209 205 201 181 157 168 180 192 179 158 147 133 92 97 104 90 178 249 252 278 306 316 308 302 284
150 165 165 171 172 170 172 179 184 187 185 187 190 195 182 185 197 212 194 198 206 179 184 173 173 132 136 127 92 108 115 115 144 161 195 256 290 305 306 346 321 326 357
176 180 183 177 183 185 198 193 199 204 193 191 200 188 177 196 204 194 179 172 141 151 108 67 75 93 116 118 85 154 140 129 149 174 164 242 257 261 273 345 324 343 114
187 190 190 186 194 198 199 220 224 215 214 213 205 192 194 205 200 200 200 192 179 162 75 130 171 169 180 181 193 208 195 189 197 169 195 221 235 234 257 319 352 208 276
212 191 193 195 191 192 193 202 211 225 224 223 221 214 203 199 202 200 200 196 188 171 138 170 174 186 192 194 196 192 195 194 163 179 189 219 219 241 256 293 276 267 294
219 201 190 198 197 191 197 201 203 203 208 206 222 216 208 206 207 201 194 185 190 184 156 171 193 188 196 199 196 192 189 156 173 188 199 211 210 198 228 255 253 251 284
204 213 208 195 190 195 187 183 196 199 207 204 188 212 206 202 210 203 193 189 186 196 165 168 176 188 199 196 199 191 179 183 184 180 210 203 203 184 241 238 245 243 270
205 206 191 196 167 169 173 192 200 201 200 197 198 202 173 180 201 200 202 173 176 167 164 182 187 189 195 192 188 184 187 182 190 197 212 202 211 205 231 232 222 244 232
198 189 182 168 181 194 200 207 208 201 203 201 203 192 184 187 194 199 200 172 183 180 178 187 187 197 194 190 179 181 194 203 200 201 196 209 197 218 219 233 238 232 240
191 194 190 201 200 205 210 204 200 200 200 193 194 195 201 192 192 194 199 193 184 180 180 184 189 196 196 193 189 187 199 211 203 197 197 200 203 216 207 221 237 235 243
196 194 190 192 196 186 193 197 197 200 198 190 187 192 206 195 194 200 197 181 169 171 172 178 185 191 186 190 185 187 193 209 207 178 189 193 198 208 197 217 221 249 226
200 200 204 203 198 200 205 204 205 201 192 188 191 198 203 209 191 202 187 175 176 178 176 182 189 188 184 192 193 195 202 180 166 185 177 177 195 198 195 206 205 216 233
210 209 205 205 205 206 201 204 204 202 199 195 201 202 204 206 193 191 180 179 180 176 190 190 189 193 196 193 196 196 196 199 181 173 169 176 188 191 192 193 200 208 202
231 225 221 196 205 199 203 209 212 209 212 209 208 203 204 205 204 191 182 184 187 193 186 188 196 198 196 203 204 199 194 196 187 179 168 176 182 184 181 202 210 200 216